DELTA 1 DEB, 14493

Orbit data source: Space-Track

DELTA 1 DEB, 14493 is space debris in LEO originally from a launch on Thu, 14 Jul 1977 UTC launched from the Air Force Eastern Test Range (AFETR). Debris objects in space refer to the collection of defunct objects orbiting the Earth. Examples of debris include non-operational satellites, rocket bodies, and fragments generated from explosions, collisions, or faulty payload assembly.

Loading next visibility...
Identifier
14493, 1977-065FJ
Orbit
LEO
Country
Flag of USUS
Related business
Manufacturer
Unknown
Mission
Spacecraft
Bus & Motor
Unknown
Mass
Unknown
Launch date (UTC)
1977-07-14 (49 years ago)
Launch vehicle
Unknown
Launch site
Air Force Eastern Test Range (AFETR)
Object type
Payload
Rocket body
Debris
Shape & HBR
Unknown shape, 0.1 m
Radar Cross Section
Medium (>0.1 m² and <1 m²)

Expand to show TLE details & history
Last TLE update: 3 days ago

TLE from 3 days ago
0 DELTA 1 DEB
1 14493U 77065FJ  26260.81770708  .00002578  00000-0  47105-3 0  9992
2 14493  28.9460  58.0649 0556106  76.8834 289.3174 13.95466441245225
Epoch: 2026-09-17T19:37Z
TLE epoch observation values (Epoch: 2026-09-17T19:37:29.891Z)
Latitude
0.00001°
Longitude
126.94088°
Altitude
794.489 km
Speed
7.516 km/s
True Right ascension
03h 52m 15s
True Declination
0° 00' 00"
Sunlit
Object was in partial shadow at epoch
Visualization orbit readout
Latitude
Unknown
Longitude
Unknown
Altitude
Unknown
Speed
Unknown
Apparent Right ascension
Unknown
Apparent Declination
Unknown
Sunlit
N/A
Visualization observer readout
Local Sidereal Time
04:42:47
Azimuth
Unknown
Elevation
Unknown
Doppler factor
Unknown
Orbital elements
Apogee altitude
1,318.972 km
Perigee altitude
507.99 km
Semi-major axis
7,291.618 km
Eccentricity
0.05561
Inclination
28.946°
RAAN
58.0649°
Arg. of periapsis
76.8834°
True anomaly
283.17408°
Mean anomaly
289.3174°
Eccentric anomaly
286.25857°
Mean motion
3.48584 °/min
Orbital period
103.27 mins
BSTAR
0.00047105
Loading maneuver chart data...
Computing Atmospheric mass density...

Documentation

Showing up to 5 results
|